Lid_Strength_Index
15 15 15 16 16 17 17 18 18 19 19 19 20 20 20 20 20 21 21 21 21 21 20 20 20 19 20 20 20 20 20 19 22 20 18 17 18 18 17 17 16 16 15
15 16 16 17 18 18 18 19 19 19 20 20 20 20 20 20 21 21 22 21 21 21 21 21 21 21 21 21 21 21 21 20 21 22 20 20 19 18 18 17 16 16 16
15 16 17 18 18 18 18 19 19 20 20 20 20 20 21 21 21 21 21 21 21 21 21 22 22 22 22 21 21 21 20 19 20 21 21 19 19 18 18 17 17 16 15
15 16 17 17 17 18 19 19 20 20 20 21 21 21 21 21 21 21 21 21 21 21 21 21 21 21 21 21 20 20 20 20 20 20 20 20 18 17 16 18 18 16 16
15 16 16 17 17 19 19 19 20 20 20 21 21 21 21 21 21 21 21 21 21 21 20 20 20 19 18 18 19 19 19 19 19 19 19 18 18 17 18 17 17 16 15
15 16 16 18 18 19 19 20 20 21 21 21 21 21 22 21 19 18 19 21 20 20 20 20 19 19 19 17 16 16 16 18 19 19 19 18 18 17 16 17 17 17 17
15 16 18 18 19 19 20 20 21 21 21 21 21 21 21 20 17 17 17 18 19 20 20 19 19 18 18 18 17 16 16 15 15 16 18 17 17 16 16 17 16 16 17
16 17 18 19 19 19 20 20 21 21 21 21 21 21 20 20 17 17 17 18 19 19 19 19 19 18 18 18 18 18 17 17 16 16 16 16 15 15 15 15 14 15 15
16 17 18 19 19 20 21 20 20 21 21 20 20 21 21 20 17 16 17 18 18 19 18 18 18 18 18 16 17 18 18 17 15 14 13 12 12 12 11 12 14 15 16
17 17 18 18 20 20 20 20 20 21 20 20 20 21 21 22 18 17 16 19 21 19 18 17 17 18 17 16 17 18 19 19 18 17 15 16 15 15 12 12 14 16 16
18 19 19 20 20 20 21 20 21 21 20 20 21 21 22 22 21 17 15 17 19 20 19 19 18 17 16 15 15 17 19 16 17 19 20 18 17 15 14 13 13 14 15
20 20 20 20 20 21 22 22 21 21 22 22 23 22 21 20 19 17 17 16 16 22 20 18 19 16 16 16 17 16 15 16 21 21 21 20 18 17 15 14 13 12 12
20 21 21 21 21 22 23 23 23 23 23 23 23 23 21 19 20 17 17 16 17 18 18 18 18 18 18 18 18 17 18 20 21 22 21 19 17 16 15 16 15 14 13
21 21 22 22 23 23 22 23 23 24 23 23 23 22 21 21 21 20 20 19 17 18 19 22 20 20 19 19 20 19 20 20 20 21 20 17 16 17 17 16 16 15 16
20 22 23 22 23 23 22 22 23 22 21 22 21 22 22 22 21 19 18 20 21 19 26 26 25 23 22 22 21 21 20 20 21 19 18 19 18 18 18 17 16 17 18
21 22 22 23 23 23 24 23 19 20 18 17 18 20 20 18 16 16 17 17 19 19 29 31 26 24 23 23 23 22 21 21 20 19 18 18 18 18 18 17 17 18 19
20 22 22 23 23 23 23 22 23 19 17 17 17 17 17 17 16 16 17 20 19 23 32 32 27 25 25 23 23 23 23 21 19 18 19 18 18 18 19 19 19 19 20
19 21 23 23 23 22 23 22 21 21 21 20 17 17 17 16 16 16 19 23 29 28 34 34 31 27 26 25 24 24 23 22 20 19 19 18 17 18 20 20 20 20 20
19 21 23 23 22 22 22 21 21 20 21 22 21 19 19 16 16 17 22 28 30 33 35 35 32 29 27 26 25 24 23 21 20 20 19 18 18 19 20 20 20 20 20
18 19 20 22 23 22 22 23 23 23 23 23 23 25 26 25 27 29 30 32 33 34 34 34 31 31 29 27 26 24 22 21 21 19 19 17 18 19 20 20 20 21 21
19 20 20 21 21 21 21 22 22 23 24 24 24 25 23 26 28 30 30 34 34 36 36 36 33 33 30 28 26 24 22 21 20 19 19 18 19 20 20 20 21 21 21
19 19 20 21 21 21 22 22 23 24 24 25 26 24 19 27 29 31 35 34 34 35 37 35 34 35 30 28 26 24 22 21 20 19 18 18 19 20 20 21 22 21 22
21 21 22 23 22 23 24 24 24 25 26 26 25 26 27 29 31 33 33 34 35 38 39 36 35 34 31 28 26 24 22 21 19 19 17 19 20 20 21 22 22 22 23
22 23 24 24 24 24 25 26 26 25 26 26 26 27 28 30 31 32 34 36 40 38 37 35 35 35 31 28 26 23 21 19 18 15 17 19 20 21 21 22 22 23 23
24 24 25 25 25 26 26 25 26 26 26 26 27 28 30 30 31 34 34 37 38 37 35 34 35 34 31 30 28 25 22 19 16 14 16 18 20 21 22 22 23 23 23
25 25 25 26 26 26 26 26 26 26 26 27 28 28 29 29 31 32 34 36 35 35 33 33 34 32 31 28 26 21 19 15 12 14 16 18 20 21 22 23 23 23 24